Alexandria, LA

4:40 PM CDT on October 21, 2017 (GMT -0500)
Alexandria International

Weather History for KAEX - September, 2013

Change the Weather History Date:

Saturday, September 7, 2013

  Actual Average Record
Temperature  
Mean Temperature 83 °F 80 °F  
Max Temperature 95 °F 91 °F 104 °F (1947)
Min Temperature 71 °F 69 °F 50 °F (2011)
Degree Days  
Heating Degree Days 0 0  
Month to date heating degree days 0 0  
Since 1 July heating degree days 0 0  
Cooling Degree Days 18 15  
Month to date cooling degree days 138 108  
Year to date cooling degree days 2103 2095  
Growing Degree Days 32 (Base 50)    
Moisture  
Dew Point 70 °F    
Average Humidity 71    
Maximum Humidity 100    
Minimum Humidity 41    
Precipitation  
Precipitation 0.00 in 0.08 in 0.65 in (1937)
Month to date precipitation 0.02 0.53  
Year to date precipitation 37.61 36.76  
Sea Level Pressure  
Sea Level Pressure 30.00 in    
Wind  
Wind Speed 2 mph (SE)    
Max Wind Speed 13 mph    
Max Gust Speed 16 mph    
Visibility 10 miles    
Events      
T = Trace of Precipitation, MM = Missing Value Source: NWS Daily Summary

Daily Weather History Graph

Daily Weather History Graph

Search for Another Location

Airport or City:

Trip Planner

Search our weather history database for the weather conditions in past years. The results will help you decide how hot, cold, wet, or windy it might be!

Date:

Astronomy

Sep. 07, 2013 Rise Set
Actual Time 6:49 AM CDT 7:25 PM CDT
Civil Twilight 6:25 AM CDT 7:50 PM CDT
Nautical Twilight 5:56 AM CDT 8:19 PM CDT
Astronomical Twilight 5:27 AM CDT 8:48 PM CDT
Moon 8:52 AM CDT (9/7) 8:38 PM CDT (9/7)
Length of Visible Light 13h 25m
Length of Day
12h 36m
Waxing Crescent, 5% of the Moon is Illuminated
Sep 7
Waxing Crescent
Sep 12
First Quarter
Sep 19
Full
Sep 26
Last Quarter
Oct 4
New

Hourly Weather History & Observations

Time (CDT) Temp. Heat Index Dew Point Humidity Pressure Visibility Wind Dir Wind Speed Gust Speed Precip Events Conditions
12:53 AM 73.9 °F - 72.0 °F 93% 30.00 in 10.0 mi SSE 4.6 mph - N/A   Clear
1:53 AM 75.0 °F - 72.0 °F 90% 29.99 in 10.0 mi Calm Calm - N/A   Clear
2:53 AM 73.0 °F - 71.1 °F 93% 29.99 in 10.0 mi Calm Calm - 0.00 in   Clear
3:53 AM 72.0 °F - 71.1 °F 97% 29.99 in 10.0 mi Calm Calm - N/A   Clear
4:53 AM 72.0 °F - 70.0 °F 93% 30.00 in 10.0 mi Calm Calm - N/A   Clear
5:53 AM 71.1 °F - 69.1 °F 93% 30.02 in 10.0 mi Calm Calm - N/A   Clear
6:53 AM 72.0 °F - 70.0 °F 93% 30.04 in 10.0 mi Calm Calm - N/A   Clear
7:53 AM 75.0 °F - 72.0 °F 90% 30.05 in 10.0 mi Calm Calm - N/A   Clear
8:53 AM 80.1 °F 84.5 °F 73.9 °F 81% 30.05 in 10.0 mi Calm Calm - N/A   Clear
9:53 AM 84.9 °F 92.1 °F 73.9 °F 69% 30.06 in 10.0 mi North 3.5 mph - N/A   Clear
10:53 AM 88.0 °F 95.6 °F 73.0 °F 61% 30.06 in 10.0 mi Calm Calm - N/A   Clear
11:53 AM 89.1 °F 95.0 °F 71.1 °F 55% 30.05 in 10.0 mi Calm Calm - N/A   Partly Cloudy
12:53 PM 91.9 °F 98.4 °F 71.1 °F 50% 30.03 in 10.0 mi ENE 5.8 mph - N/A   Clear
1:53 PM 91.9 °F 97.4 °F 70.0 °F 48% 30.00 in 10.0 mi SE 8.1 mph - N/A   Partly Cloudy
2:53 PM 93.0 °F 99.0 °F 70.0 °F 47% 29.97 in 10.0 mi SE 5.8 mph - N/A   Partly Cloudy
3:53 PM 93.0 °F 96.4 °F 66.9 °F 42% 29.94 in 10.0 mi Calm Calm - N/A   Clear
4:53 PM 93.9 °F 97.5 °F 66.9 °F 41% 29.94 in 10.0 mi Variable 4.6 mph - N/A   Clear
5:53 PM 89.1 °F 93.7 °F 69.1 °F 52% 29.95 in 10.0 mi SSE 5.8 mph - N/A   Clear
6:53 PM 86.0 °F 90.1 °F 69.1 °F 57% 29.96 in 10.0 mi SSE 4.6 mph - N/A   Clear
7:53 PM 84.0 °F 88.4 °F 70.0 °F 63% 29.96 in 10.0 mi SSW 5.8 mph - N/A   Clear
8:53 PM 80.1 °F 82.9 °F 69.1 °F 69% 29.99 in 10.0 mi SSE 3.5 mph - N/A   Clear
9:53 PM 75.9 °F - 69.1 °F 79% 30.00 in 10.0 mi SSE 5.8 mph - N/A   Clear
10:53 PM 75.0 °F - 69.1 °F 82% 29.99 in 10.0 mi Calm Calm - N/A   Clear
11:53 PM 73.0 °F - 69.1 °F 87% 29.99 in 10.0 mi Calm Calm - N/A   Clear